Location: Newark
(16.3678°N, 77.8722°E)
Time: 17:51:57
(UTC+00:00)

S-56A Canister/Altair - Pass Details

Date: 11 December 2019
Orbit: 634 x 2498 km, 38.9° (Epoch: 19 January)

Event Time Altitude Azimuth Distance (km) Brightness Sun altitude
Rises 14:01:51 0° 285° (WNW) 5,045 12.6 -24.4°
Reaches altitude 10° 14:07:23 10° 265° (W) 3,610 11.9 -25.6°
Maximum altitude 14:11:53 15° 234° (SW) 2,870 11.2 -26.7°
Drops below altitude 10° 14:15:39 10° 202° (SSW) 2,902 10.9 -27.5°
Sets 14:19:19 0° 177° (S) 3,546 11.1 -28.4°
